Flag for U.S.A. Weather past 2 weeks in New York, New York, U.S.A.

Now
77 °F

Clear.


Feels Like: 79 °F
Forecast: 71 / 88 °F
Wind: No wind

Location: New York City - Central Park

Current Time: Sep 2, 2015 at 2:51:17 AM

Latest Report: Sep 2, 2015 at 1:51 AM


Visibility: 8 mi

Pressure: 30.04 "Hg

Humidity: 60%

Dew point: 62 °F

Location of New YorkLocation

Historic Weather in New York — Graph

°F

New York temperature yesterday

Maximum temperature yesterday: 89 °F (at 2:51 PM)
Minimum temperature yesterday: 76 °F (at 5:51 AM)
Average temperature yesterday: 81 °F

Past Weeks' High & Low Weather Summary

 TemperatureHumidityPressure
High91 °F (Aug 31, 2:51 PM)91% (Aug 21, 2:51 AM)30.22 "Hg (Aug 21, 2:51 AM)
Low64 °F (Aug 28, 5:51 AM)30% (Aug 26, 1:51 PM)29.80 "Hg (Aug 25, 4:51 PM)
Average78 °F57%30.02 "Hg
* Reported Aug 18 1:51 AM — Sep 2 1:51 AM, New York, Weather by CustomWeather, © 2015

Note: Actual official high and low records may vary slightly from our data, if they occured in-between our weather recording intervals... More about our weather records

Advertising

New York weather history for previous 24 hours

 ConditionsComfort  
Time TempWeatherWind HumidityBarometerVisibility
1:51 AM
Wed, Sep 2
77 °FClear.No wind60%30.04 "Hg8 mi
12:51 AM77 °FClear.3 mph56%30.05 "Hg9 mi
11:51 PM
Tue, Sep 1
78 °FClear.No wind58%30.05 "Hg9 mi
10:51 PM78 °FClear.No wind60%30.05 "Hg9 mi
9:51 PM78 °FClear.3 mph60%30.04 "Hg9 mi
8:51 PM79 °FPassing clouds.3 mph60%30.04 "Hg9 mi
7:51 PM79 °FSunny.3 mph58%30.02 "Hg9 mi
6:51 PM81 °FSunny.No wind54%30.01 "Hg8 mi
4:51 PM85 °FSunny.3 mph50%30.01 "Hg8 mi
3:51 PM86 °FPassing clouds.8 mph46%30.01 "Hg8 mi
2:51 PM89 °FPassing clouds.No wind39%30.02 "Hg8 mi
1:51 PM88 °FPassing clouds.3 mph42%30.03 "Hg8 mi
12:51 PM84 °FPartly sunny.3 mph48%30.04 "Hg8 mi
11:51 AM84 °FPassing clouds.5 mph49%30.05 "Hg8 mi
10:51 AM83 °FSunny.5 mph51%30.05 "Hg8 mi
9:51 AM81 °FSunny.6 mph56%30.05 "Hg8 mi
8:51 AM79 °FSunny.5 mph62%30.04 "Hg7 mi
7:51 AM77 °FSunny.No wind66%30.04 "Hg7 mi
6:51 AM77 °FClear.No wind66%30.02 "Hg7 mi
5:51 AM76 °FClear.No wind69%30.01 "Hg8 mi
4:51 AM78 °FClear.No wind64%30.00 "Hg9 mi
3:51 AM79 °FClear.No wind65%30.01 "Hg9 mi
2:51 AM80 °FPassing clouds.No wind62%30.00 "Hg9 mi
Weather by CustomWeather, © 2015

See weather overviewHow to use our weather pages